This demonstration page uses our WeatherBlox Daily Observations layout. Learn more.

41.55636, -103.73856

Hourly Observations for December 21, 2015

Temp ( °F °C ) Dew Point ( °F °C ) Humidity (%) Winds ( mph kmh ) Pressure ( in mb ) Visibility ( mi km ) Precip ( " mm )
12:40 am 00:40 Cloudy with Mist and Fog 27 -3 25 -4 93 93 SE 5 7 29.94 1014 1.75 2.816345 0 0
12:53 am 00:53 Mostly Cloudy with Freezing Fog 25 -3.9 24 -4.4 96 96 ESE 3 6 29.86 1011 0.5 0.80467 0 0
1:01 am 01:01 Mostly Cloudy with Freezing Fog 25 -3.9 24 -4.4 96 96 E 5 7 29.97 1015 0.25 0.402335 0 0
1:48 am 01:48 Mostly Cloudy with Freezing Fog 25 -4 25 -4 100 100 SE 5 7 29.97 1015 0.25 0.402335 0 0
1:53 am 01:53 Mostly Cloudy with Freezing Fog 25 -3.9 23 -5 92 92 ESE 6 9 29.87 1011 0.25 0.402335 0 0
2:53 am 02:53 Mostly Cloudy with Freezing Fog 24 -4.4 23 -5 96 96 Calm 29.87 1012 0.25 0.402335 0 0
3:53 am 03:53 Mostly Cloudy with Freezing Fog 24 -4.4 21 -6.1 88 88 NE 3 6 29.87 1012 0.25 0.402335 0 0
4:19 am 04:19 Mostly Cloudy with Mist and Fog 23 -5 21 -6.1 92 92 N 3 6 29.94 1014 0.75 1.207005 0 0
4:27 am 04:27 Mostly Cloudy with Mist and Fog 22 -5.6 20 -6.7 92 92 Calm 29.97 1015 1 1.60934 0 0
4:39 am 04:39 Cloudy with Mist and Fog 22 -5.6 20 -6.7 92 92 Calm 30 1016 3 4.82802 0 0
4:53 am 04:53 Cloudy with Mist and Fog 23 -5 21 -6.1 92 92 Calm 29.88 1012 5 8.0467 0 0
5:53 am 05:53 Cloudy with Mist and Fog 23 -5 21 -6.1 92 92 NNW 3 6 29.91 1013 6 9.65604 0 0
6:53 am 06:53 Clear 23 -5 20 -6.7 88 88 Calm 29.93 1014 7 11.26538 0 0
7:53 am 07:53 Sunny with Mist and Fog 20 -6.7 16 -8.9 85 85 Calm 29.95 1014 4 6.43736 0 0
8:53 am 08:53 Sunny with Mist and Fog 25 -3.9 22 -5.6 88 88 Calm 29.94 1014 5 8.0467 0 0
9:53 am 09:53 Sunny 28 -2.2 22 -5.6 78 78 NW 9 15 29.95 1014 10 16.0934 0 0
10:53 am 10:53 Sunny 34 1.1 25 -3.9 70 70 WNW 7 11 29.93 1013 10 16.0934 0 0
11:53 am 11:53 Sunny 40 4.4 22 -5.6 49 49 WNW 16 26 29.88 1012 10 16.0934 0 0
12:53 pm 12:53 Sunny 41 5 21 -6.1 45 45 W 8 13 29.85 1011 10 16.0934 0 0
1:53 pm 13:53 Sunny 41 5 21 -6.1 45 45 W 14 22 29.83 1010 10 16.0934 0 0
2:53 pm 14:53 Sunny 41 5 20 -6.7 43 43 WNW 8 13 29.81 1009 10 16.0934 0 0
3:53 pm 15:53 Sunny 37 2.8 20 -6.7 50 50 NNW 6 9 29.8 1009 10 16.0934 0 0
4:53 pm 16:53 Partly Cloudy 29 -1.7 19 -7.2 66 66 ESE 5 7 29.82 1010 10 16.0934 0 0
5:53 pm 17:53 Mostly Cloudy 27 -2.8 19 -7.2 72 72 E 7 11 29.81 1009 10 16.0934 0 0
6:53 pm 18:53 Cloudy 28 -2.2 20 -6.7 72 72 ESE 7 11 29.76 1008 10 16.0934 0 0
7:53 pm 19:53 Clear 28 -2.2 19 -7.2 69 69 ESE 9 15 29.73 1007 10 16.0934 0 0
8:53 pm 20:53 Mostly Clear 30 -1.1 19 -7.2 64 64 SE 10 17 29.68 1005 10 16.0934 0 0
9:53 pm 21:53 Clear 25 -3.9 17 -8.3 72 72 ESE 10 17 29.64 1004 10 16.0934 0 0
10:53 pm 22:53 Cloudy 29 -1.7 19 -7.2 66 66 ESE 13 20 29.59 1002 10 16.0934 0 0
11:53 pm 23:53 Mostly Cloudy 31 -0.6 22 -5.6 69 69 ESE 13 20 29.52 1000 10 16.0934 0 0

Powered by AerisWeather